GCRVN EGPA-EGPE

Flight info

Callsign GCRVN
Flight time N/A
Altitude FL080
Route DCT WIK N560 BONBY DCT INS DCT
Aircraft C208/M-VGD/C

Departure

Time N/A
Airport Kirkwall Airport (EGPA)

Arrival

Time 2026-05-09 11:33
Airport Inverness Airport (EGPE)
Time Latitude Longitude Altitude Speed Heading
2026-05-09 11:14 57.90354 -4.31797 5291 ft 149 kts 233°
2026-05-09 11:14 57.89653 -4.33177 5286 ft 145 kts 216°
2026-05-09 11:15 57.88672 -4.33448 5300 ft 146 kts 173°
2026-05-09 11:15 57.87687 -4.32913 5287 ft 147 kts 160°
2026-05-09 11:15 57.86738 -4.32175 5291 ft 152 kts 158°
2026-05-09 11:15 57.85750 -4.31341 5287 ft 156 kts 156°
2026-05-09 11:16 57.84731 -4.30463 5284 ft 158 kts 156°
2026-05-09 11:16 57.83678 -4.29547 5283 ft 159 kts 156°
2026-05-09 11:16 57.82631 -4.28633 5283 ft 159 kts 156°
2026-05-09 11:16 57.81569 -4.27707 5287 ft 159 kts 156°
2026-05-09 11:17 57.80576 -4.26841 5288 ft 159 kts 156°
2026-05-09 11:17 57.79563 -4.25961 5289 ft 159 kts 156°
2026-05-09 11:17 57.78556 -4.25086 5289 ft 159 kts 156°
2026-05-09 11:17 57.77556 -4.24217 5292 ft 159 kts 156°
2026-05-09 11:18 57.76571 -4.23357 5294 ft 159 kts 156°
2026-05-09 11:18 57.75553 -4.22479 5295 ft 159 kts 156°
2026-05-09 11:18 57.74484 -4.21550 5243 ft 162 kts 156°
2026-05-09 11:18 57.73389 -4.20720 5103 ft 163 kts 173°
2026-05-09 11:19 57.72311 -4.21285 4984 ft 157 kts 223°
2026-05-09 11:19 57.71627 -4.22870 4861 ft 155 kts 240°
2026-05-09 11:19 57.71022 -4.24556 4728 ft 156 kts 240°
2026-05-09 11:19 57.70401 -4.26218 4594 ft 157 kts 236°
2026-05-09 11:20 57.69727 -4.27837 4454 ft 157 kts 235°
2026-05-09 11:20 57.69014 -4.29377 4324 ft 156 kts 231°
2026-05-09 11:20 57.68250 -4.30851 4195 ft 156 kts 228°
2026-05-09 11:20 57.67450 -4.32233 4064 ft 156 kts 224°
2026-05-09 11:21 57.66608 -4.33529 3935 ft 157 kts 221°
2026-05-09 11:21 57.65713 -4.34761 3821 ft 158 kts 218°
2026-05-09 11:21 57.64809 -4.35865 3803 ft 152 kts 215°
2026-05-09 11:21 57.63917 -4.36902 3805 ft 149 kts 211°
2026-05-09 11:22 57.62973 -4.37767 3720 ft 150 kts 209°
2026-05-09 11:22 57.62008 -4.38558 3591 ft 151 kts 205°
2026-05-09 11:22 57.61020 -4.39266 3464 ft 154 kts 202°
2026-05-09 11:22 57.59992 -4.39887 3335 ft 156 kts 199°
2026-05-09 11:23 57.58915 -4.40423 3209 ft 159 kts 196°
2026-05-09 11:23 57.57824 -4.40845 3085 ft 161 kts 192°
2026-05-09 11:23 57.56715 -4.41156 2952 ft 155 kts 189°
2026-05-09 11:23 57.55659 -4.41337 2819 ft 148 kts 186°
2026-05-09 11:24 57.54644 -4.41414 2688 ft 141 kts 182°
2026-05-09 11:24 57.53686 -4.41394 2655 ft 131 kts 180°
2026-05-09 11:24 57.52789 -4.41300 2652 ft 124 kts 177°
2026-05-09 11:24 57.51944 -4.41141 2650 ft 118 kts 174°
2026-05-09 11:25 57.51139 -4.40927 2652 ft 112 kts 172°
2026-05-09 11:25 57.50390 -4.40672 2655 ft 106 kts 170°
2026-05-09 11:25 57.49683 -4.40382 2659 ft 101 kts 168°
2026-05-09 11:25 57.49001 -4.40053 2665 ft 101 kts 165°
2026-05-09 11:26 57.48265 -4.39649 2684 ft 120 kts 163°
2026-05-09 11:26 57.47389 -4.39095 2676 ft 138 kts 160°
2026-05-09 11:26 57.46452 -4.38408 2669 ft 149 kts 157°
2026-05-09 11:26 57.45475 -4.37581 2666 ft 156 kts 153°
2026-05-09 11:27 57.44497 -4.36615 2657 ft 158 kts 148°
2026-05-09 11:27 57.43558 -4.35541 2649 ft 157 kts 142°
2026-05-09 11:27 57.42912 -4.34016 2653 ft 153 kts 111°
2026-05-09 11:27 57.42707 -4.32135 2645 ft 145 kts 85°
2026-05-09 11:28 57.42776 -4.30295 2639 ft 138 kts 77°
2026-05-09 11:28 57.43180 -4.28766 2649 ft 128 kts 51°
2026-05-09 11:28 57.43604 -4.27318 2646 ft 129 kts 79°
2026-05-09 11:28 57.43822 -4.25738 2652 ft 123 kts 54°
2026-05-09 11:29 57.44242 -4.24321 2645 ft 123 kts 58°
2026-05-09 11:29 57.44637 -4.22907 2646 ft 122 kts 58°
2026-05-09 11:29 57.45029 -4.21495 2649 ft 122 kts 57°
2026-05-09 11:29 57.45549 -4.20258 2652 ft 119 kts 43°
2026-05-09 11:30 57.46125 -4.19152 2658 ft 119 kts 41°
2026-05-09 11:30 57.46828 -4.18258 2417 ft 133 kts 12°
2026-05-09 11:30 57.47762 -4.17748 2084 ft 149 kts 31°
2026-05-09 11:30 57.48529 -4.16513 1791 ft 154 kts 36°
2026-05-09 11:31 57.49338 -4.15218 1595 ft 147 kts 41°
2026-05-09 11:31 57.50051 -4.13885 1347 ft 144 kts 46°
2026-05-09 11:31 57.50770 -4.12745 1234 ft 133 kts 41°
2026-05-09 11:31 57.51282 -4.11405 1060 ft 120 kts 57°
2026-05-09 11:32 57.51726 -4.10212 830 ft 105 kts 51°
2026-05-09 11:32 57.52163 -4.09255 647 ft 89 kts 47°
2026-05-09 11:32 57.52561 -4.08448 461 ft 79 kts 48°
2026-05-09 11:32 57.52939 -4.07634 348 ft 87 kts 48°
2026-05-09 11:33 57.53337 -4.06741 244 ft 89 kts 50°
2026-05-09 11:33 57.53723 -4.05911 105 ft 82 kts 51°
2026-05-09 11:33 57.54180 -4.04885 50 ft 12 kts 125°
2026-05-09 11:34 57.54103 -4.04873 50 ft 11 kts 182°
2026-05-09 11:34 57.54034 -4.04876 50 ft 9 kts 182°
2026-05-09 11:34 57.53976 -4.04877 50 ft 8 kts 178°
2026-05-09 11:34 57.53926 -4.04880 50 ft 7 kts 180°
2026-05-09 11:35 57.53880 -4.04861 51 ft 7 kts 133°
2026-05-09 11:35 57.53859 -4.04816 52 ft 0 kts 131°
2026-05-09 11:36 57.53859 -4.04817 52 ft 0 kts 131°